Weather in Ononskoye

Russia / Zabaykalsky Krai     51°28′34″N   115°57′11″E
temp.,
°C
wind,
m/s
gust,
m/s
humid.,
%
clouds,
%
prec.,
mm/h
press.,
hPa
HPBL,
m
13 may, thu
thu1300:00+7nw224896 0.0 100619
03:00+6wsw225629 0.0 100721
06:00+4w22680 0.0 100824
09:00+8w6838100 0.0 10081175
12:00+9w6929100 0.0 10071715
15:00+12w6923100 0.0 10052582
18:00+11wsw472519 0.0 10041543
21:00+8ssw22331 0.0 100411
14 may, fri
fri1400:00+4s236710 0.0 100727
03:00+3wnw11565 0.0 100620
06:00+2w226382 0.0 100819
09:00+6nnw566095 0.0 10081197
12:00+8nnw575275 0.1 10081648
15:00+11nnw5737100 0.4 10072412
18:00+11nnw683899 0.0 10072155
21:00+7wnw3659100 0.2 100998
15 may, sat
sat1500:00+7n115945 0.1 101111
03:00+4wnw11675 0.1 101210
06:00+4nw11685 0.0 101310
09:00+10wnw23480 0.0 1012526
12:00+15wnw45305 0.0 10102014
15:00+17w67255 0.0 10082471
18:00+18w58180 0.0 10063043
21:00+13ssw222720 0.0 100512
16 may, sun
sun1600:00+10wsw353176 0.0 100693
03:00+7wnw813355 0.0 10091059
06:00+5w712475 0.0 10081009
09:00+7wnw91349100 0.0 10071767
12:00+14nw913325 0.0 10042023
15:00+17wnw8102342 0.0 10032359
18:00+17wnw993946 0.0 10031979
21:00+12wnw611515 0.0 1004339
17 may, mon
mon1700:00+10wnw612659 0.0 1006545
03:00+7wnw23785 0.0 100748
06:00+6ssw22836 0.0 100723
09:00+12wsw3462100 0.0 1005955
12:00+13w576061 0.0 10041093
15:00+17w7134491 0.1 10012116
18:00+17w71047100 0.0 10001543
21:00+14nw81436100 0.0 1001650